Location: Unspecified
(0.0000°N, 0.0000°E)
Time: 13:01:50
(UTC+00:00)

Hubble Space Telescope - Pass Details

Date: 14 May 2026
Orbit: 473 x 476 km, 28.5° (Epoch: 18 May)

Event Time Altitude Azimuth Distance (km) Brightness Sun altitude
Exits shadow 04:03:52 17° 131° (SE) 1,262 2.9 -26.5°
Drops below altitude 10° 04:05:34 10° 105° (ESE) 1,627 3.9 -26.1°
Sets 04:08:14 0° 86° (E) 2,502 5.4 -25.5°
